Douglas, WY

1:18 PM MDT on October 20, 2017 (GMT -0600)
Converse County

Weather History for KDGW - May, 2014

Change the Weather History Date:

Tuesday, May 13, 2014

  Actual Average Record
Temperature  
Mean Temperature 41 °F 52 °F  
Max Temperature 55 °F 67 °F 89 °F (2013)
Min Temperature 27 °F 37 °F 21 °F (2000)
Degree Days  
Heating Degree Days 24 13  
Month to date heating degree days 221 195  
Since 1 July heating degree days 7340 7152  
Cooling Degree Days 0 0  
Month to date cooling degree days 0 0  
Year to date cooling degree days 0 0  
Moisture  
Dew Point 27 °F    
Average Humidity 62    
Maximum Humidity 85    
Minimum Humidity 38    
Precipitation  
Precipitation T in 0.07 in 0.71 in (1965)
Month to date precipitation 0.80 1.04  
Year to date precipitation 4.35 4.19  
Sea Level Pressure  
Sea Level Pressure 30.43 in    
Wind  
Wind Speed 12 mph (NW)    
Max Wind Speed 30 mph    
Max Gust Speed 38 mph    
Visibility 10 miles    
Events Rain    
T = Trace of Precipitation, MM = Missing Value Source: NWS Daily Summary

Daily Weather History Graph

Daily Weather History Graph

Search for Another Location

Airport or City:

Trip Planner

Search our weather history database for the weather conditions in past years. The results will help you decide how hot, cold, wet, or windy it might be!

Date:

Astronomy

May. 13, 2014 Rise Set
Actual Time 5:40 AM MDT 8:15 PM MDT
Civil Twilight 5:08 AM MDT 8:47 PM MDT
Nautical Twilight 4:28 AM MDT 9:28 PM MDT
Astronomical Twilight 3:42 AM MDT 10:14 PM MDT
Moon 7:18 PM MDT (5/13) 5:01 AM MDT (5/13)
Length of Visible Light 15h 39m
Length of Day
14h 34m
Waxing Gibbous, 99% of the Moon is Illuminated
May 13
Waxing Gibbous
May 14
Full
May 21
Last Quarter
May 28
New
Jun 5
First Quarter

Hourly Weather History & Observations

Time (MDT) Temp. Windchill Dew Point Humidity Pressure Visibility Wind Dir Wind Speed Gust Speed Precip Events Conditions
12:53 AM 28.9 °F 23.9 °F 24.1 °F 82% 30.45 in 10.0 mi NW 4.6 mph - N/A   Clear
1:53 AM 28.0 °F - 23.0 °F 81% 30.46 in 10.0 mi Calm Calm - N/A   Clear
2:53 AM 27.0 °F 23.0 °F 23.0 °F 85% 30.45 in 10.0 mi NW 3.5 mph - N/A   Partly Cloudy
3:53 AM 28.9 °F 20.4 °F 24.1 °F 82% 30.43 in 10.0 mi NW 9.2 mph - N/A   Scattered Clouds
4:53 AM 30.0 °F 21.7 °F 25.0 °F 82% 30.44 in 10.0 mi NW 9.2 mph - N/A   Scattered Clouds
5:53 AM 30.0 °F 21.7 °F 25.0 °F 82% 30.44 in 10.0 mi NW 9.2 mph - N/A   Scattered Clouds
7:53 AM 37.9 °F 30.0 °F 26.1 °F 62% 30.44 in 10.0 mi NW 12.7 mph - N/A   Clear
10:53 AM 50.0 °F - 25.0 °F 38% 30.42 in 10.0 mi West 20.7 mph 27.6 mph N/A   Scattered Clouds
11:53 AM 48.0 °F - 25.0 °F 41% 30.44 in 10.0 mi WNW 18.4 mph 24.2 mph N/A   Overcast
12:44 PM 46.0 °F 38.5 °F 26.1 °F 46% 30.41 in 10.0 mi WNW 19.6 mph 26.5 mph N/A   Overcast
12:53 PM 45.0 °F 37.1 °F 26.1 °F 48% 30.46 in 10.0 mi WNW 19.6 mph - N/A   Overcast
1:53 PM 45.0 °F 40.6 °F 27.0 °F 49% 30.45 in 10.0 mi West 8.1 mph 28.8 mph 0.00 in Rain Light Rain
2:53 PM 50.0 °F - 28.9 °F 44% 30.42 in 10.0 mi West 10.4 mph 17.3 mph 0.00 in   Mostly Cloudy
4:53 PM 51.1 °F - 28.0 °F 41% 30.39 in 10.0 mi North 19.6 mph 27.6 mph N/A   Overcast
5:53 PM 50.0 °F - 27.0 °F 41% 30.40 in 10.0 mi North 15.0 mph 25.3 mph 0.00 in   Mostly Cloudy
6:53 PM 48.0 °F - 28.0 °F 46% 30.39 in 10.0 mi NNW 16.1 mph - N/A   Scattered Clouds
7:53 PM 45.0 °F 39.7 °F 30.0 °F 56% 30.39 in 10.0 mi NW 10.4 mph - N/A   Scattered Clouds
8:53 PM 42.1 °F 36.6 °F 30.0 °F 62% 30.41 in 10.0 mi NW 9.2 mph - N/A   Mostly Cloudy
9:53 PM 36.0 °F 30.3 °F 30.0 °F 79% 30.43 in 10.0 mi WNW 6.9 mph - N/A   Clear
10:53 PM 36.0 °F - 28.9 °F 76% 30.42 in 10.0 mi Calm Calm - N/A   Clear
11:53 PM 34.0 °F 28.8 °F 28.0 °F 79% 30.43 in 10.0 mi NNW 5.8 mph - N/A   Clear